Flag for Luxembourg Weather past 2 weeks in Differdange, Luxembourg

Now
61 °F

Passing clouds.


Feels Like: 61 °F
Forecast: 53 / 66 °F
Wind: 5 mph from West

Location: Luxembourg Airport

Current Time: Aug 29, 2014 at 5:19:04 AM

Latest Report: Aug 29, 2014 at 4:50 AM


Visibility: N/A

Pressure: 30.04 "Hg

Humidity: 94%

Dew point: 59 °F

Location of DifferdangeLocation

Historic Weather in Differdange — Graph

°F

Differdange temperature yesterday

Maximum temperature yesterday: 68 °F (at 5:20 PM)
Minimum temperature yesterday: 57 °F (at 1:50 AM)
Average temperature yesterday: 62 °F

Past Weeks' High & Low Weather Summary

 TemperatureHumidityPressure
High68 °F (Aug 28, 5:20 PM)100% (Aug 14, 5:50 AM)30.15 "Hg (Aug 14, 5:50 AM)
Low45 °F (Aug 20, 3:20 AM)39% (Aug 21, 5:50 PM)29.65 "Hg (Aug 26, 2:50 AM)
Average57 °F80%29.97 "Hg
* Reported Aug 14 3:20 AM — Aug 29 3:50 AM, Differdange, Weather by CustomWeather, © 2014

Note: Actual official high and low records may vary slightly from our data, if they occured in-between our weather recording intervals... More about our weather records

Advertising

Differdange weather history for previous 24 hours

 ConditionsComfort  
Time TempWeatherWind HumidityBarometerVisibility
3:50 AM
Aug 29
61 °FCool.5 mph94%30.01 "Hg5 mi
3:20 AM61 °FCool.2 mph94%30.01 "Hg6 mi
2:50 AM61 °FCool.5 mph100%30.01 "Hg4 mi
2:20 AM61 °FCool.3 mph100%30.01 "Hg4 mi
1:50 AM61 °FPassing clouds.1 mph94%30.01 "HgN/A
1:20 AM61 °FPassing clouds.No wind94%30.01 "HgN/A
12:50 AM63 °FPassing clouds.1 mph94%30.01 "HgN/A
12:20 AM63 °FPassing clouds.3 mph94%30.01 "HgN/A
11:50 PM
Aug 28
64 °FPassing clouds.7 mph88%30.01 "HgN/A
11:20 PM64 °FPassing clouds.7 mph88%30.01 "HgN/A
10:50 PM64 °FPassing clouds.6 mph88%29.98 "HgN/A
10:20 PM64 °FPassing clouds.6 mph88%29.98 "HgN/A
9:50 PM64 °FPassing clouds.2 mph83%30.01 "HgN/A
9:20 PM66 °FPartly sunny.5 mph83%30.01 "HgN/A
8:50 PM66 °FPartly sunny.2 mph83%30.01 "HgN/A
8:20 PM66 °FScattered clouds.3 mph83%29.98 "HgN/A
7:50 PM68 °FPassing clouds.5 mph78%29.98 "HgN/A
7:20 PM68 °FScattered clouds.3 mph78%30.01 "HgN/A
6:50 PM68 °FScattered clouds.5 mph78%30.01 "HgN/A
6:20 PM68 °FScattered clouds.5 mph78%30.01 "HgN/A
5:50 PM68 °FScattered clouds.7 mph78%30.01 "HgN/A
5:20 PM68 °FScattered clouds.5 mph78%30.01 "HgN/A
4:50 PM64 °FPartly sunny.6 mph88%30.01 "HgN/A
4:20 PM66 °FPartly sunny.7 mph78%30.01 "HgN/A
3:50 PM66 °FPartly sunny.8 mph78%30.01 "HgN/A
3:20 PM64 °FBroken clouds.6 mph83%30.04 "HgN/A
2:50 PM64 °FPartly sunny.5 mph88%30.04 "HgN/A
2:20 PM61 °FDrizzle. Fog.7 mph94%30.04 "Hg1 mi
1:50 PM63 °FDrizzle. Broken clouds.9 mph94%30.04 "Hg2 mi
1:20 PM64 °FLight rain. Partly sunny.8 mph83%30.04 "HgN/A
12:50 PM64 °FPartly sunny.7 mph83%30.04 "HgN/A
12:20 PM63 °FPartly sunny.7 mph83%30.04 "HgN/A
11:50 AM63 °FPartly sunny.6 mph83%30.04 "HgN/A
11:20 AM61 °FBroken clouds.6 mph88%30.04 "HgN/A
10:50 AM61 °FPartly sunny.7 mph94%30.04 "Hg4 mi
10:20 AM59 °FPartly sunny.5 mph100%30.04 "Hg3 mi
9:50 AM59 °FFog.5 mph94%30.04 "Hg1 mi
9:20 AM59 °FFog.7 mph94%30.04 "Hg2 mi
8:50 AM57 °FFog.6 mph100%30.04 "Hg1 mi
8:20 AM57 °FFog.3 mph100%30.04 "Hg1 mi
7:50 AM57 °FFog.2 mph100%30.04 "Hg1 mi
7:20 AM57 °FPassing clouds.2 mph100%30.04 "Hg1 mi
6:50 AM57 °FFog.2 mph100%30.04 "Hg1 mi
6:20 AM57 °FFog.2 mph100%30.04 "Hg1 mi
5:50 AM57 °FFog.No wind100%30.04 "Hg0 mi
5:20 AM57 °FFog.2 mph100%30.04 "Hg0 mi
Weather by CustomWeather, © 2014

See weather overviewHow to use our weather pages